TimeCDT,TemperatureF,Dew PointF,Humidity,Sea Level PressureIn,VisibilityMPH,Wind Direction,Wind SpeedMPH,Gust SpeedMPH,PrecipitationIn,Events,Conditions,WindDirDegrees,DateUTC
12:54 AM,59.0,48.0,67,29.88,10.0,SSW,4.6,-,N/A,,Mostly Cloudy,210,2012-10-03 05:54:00
1:54 AM,55.9,48.0,75,29.89,10.0,SW,5.8,-,N/A,,Clear,220,2012-10-03 06:54:00
2:54 AM,57.9,50.0,75,29.89,10.0,SW,5.8,-,N/A,,Overcast,220,2012-10-03 07:54:00
3:54 AM,57.9,50.0,75,29.90,10.0,SW,5.8,-,N/A,,Overcast,220,2012-10-03 08:54:00
4:54 AM,57.9,50.0,75,29.91,10.0,SW,4.6,-,N/A,,Overcast,230,2012-10-03 09:54:00
5:54 AM,57.9,48.9,72,29.92,10.0,Calm,Calm,-,N/A,,Overcast,0,2012-10-03 10:54:00
6:54 AM,57.2,50.0,77,29.94,10.0,Calm,Calm,-,N/A,,Mostly Cloudy,0,2012-10-03 11:54:00
7:54 AM,57.9,50.0,75,29.95,10.0,Calm,Calm,-,N/A,,Clear,0,2012-10-03 12:54:00
8:54 AM,60.1,50.0,69,29.95,10.0,Calm,Calm,-,N/A,,Overcast,0,2012-10-03 13:54:00
9:54 AM,62.1,50.0,65,29.96,10.0,Calm,Calm,-,N/A,,Overcast,0,2012-10-03 14:54:00
10:54 AM,64.9,48.9,56,29.97,10.0,South,3.5,-,N/A,,Mostly Cloudy,190,2012-10-03 15:54:00
11:49 AM,66.2,48.2,52,29.98,2.0,Calm,Calm,-,N/A,,Haze,0,2012-10-03 16:49:00
11:54 AM,68.0,50.0,52,29.97,9.0,Calm,Calm,-,N/A,,Mostly Cloudy,0,2012-10-03 16:54:00
12:54 PM,68.0,50.0,52,29.96,10.0,South,4.6,-,N/A,,Scattered Clouds,170,2012-10-03 17:54:00
1:54 PM,69.1,50.0,51,29.95,10.0,SSE,6.9,-,N/A,,Overcast,160,2012-10-03 18:54:00
2:54 PM,68.0,52.0,56,29.95,10.0,SSE,8.1,-,N/A,,Overcast,150,2012-10-03 19:54:00
3:54 PM,66.9,55.0,66,29.94,10.0,SE,9.2,-,N/A,,Overcast,140,2012-10-03 20:54:00
4:54 PM,66.9,55.9,68,29.94,10.0,SSE,8.1,-,0.00,,Overcast,160,2012-10-03 21:54:00
5:54 PM,68.0,55.0,63,29.95,10.0,South,10.4,-,N/A,,Scattered Clouds,170,2012-10-03 22:54:00
6:54 PM,64.0,52.0,65,29.96,10.0,South,8.1,-,N/A,,Clear,170,2012-10-03 23:54:00
7:54 PM,62.6,50.0,63,29.98,10.0,South,8.1,-,N/A,,Clear,170,2012-10-04 00:54:00
8:54 PM,62.1,48.9,62,30.00,10.0,South,8.1,-,N/A,,Clear,180,2012-10-04 01:54:00
9:54 PM,62.1,51.1,67,30.01,10.0,South,8.1,-,N/A,,Clear,170,2012-10-04 02:54:00
10:54 PM,61.0,52.0,72,30.01,10.0,South,6.9,-,N/A,,Clear,180,2012-10-04 03:54:00
11:54 PM,61.0,53.1,75,30.02,10.0,South,5.8,-,N/A,,Clear,170,2012-10-04 04:54:00